EN

Hourly Weather Alto Parana

Today, 21 January, Thursday

Time Temperature Precipitation Wind Pressure Humidity
00:00 +23°C° 1.2 mm 1 mps 716 mmHg 94%
01:00 +23°C° 2.6 mm 1 mps 716 mmHg 94%
02:00 +23°C° 2.6 mm 1 mps 716 mmHg 95%
03:00 +23°C° 0 mm 1 mps 716 mmHg 94%
04:00 +21°C° 0.5 mm 2 mps 716 mmHg 95%
05:00 +21°C° 0.5 mm 3 mps 716 mmHg 95%
06:00 +21°C° 0.5 mm 3 mps 716 mmHg 95%
07:00 +21°C° 0.1 mm 3 mps 717 mmHg 94%
08:00 +23°C° 0.1 mm 2 mps 717 mmHg 93%
09:00 +23°C° 0.1 mm 2 mps 717 mmHg 93%
10:00 +23°C° 0.1 mm 2 mps 717 mmHg 93%
11:00 +23°C° 0.1 mm 1 mps 717 mmHg 93%
12:00 +24°C° 0.1 mm 1 mps 717 mmHg 93%
13:00 +24°C° 0 mm 2 mps 717 mmHg 91%
14:00 +25°C° 0 mm 2 mps 716 mmHg 89%
15:00 +25°C° 0 mm 2 mps 716 mmHg 88%
16:00 +25°C° 0.4 mm 2 mps 716 mmHg 88%
17:00 +25°C° 0.4 mm 3 mps 716 mmHg 89%
18:00 +25°C° 0.4 mm 3 mps 716 mmHg 90%
19:00 +24°C° 0.6 mm 3 mps 716 mmHg 89%
20:00 +24°C° 0.6 mm 2 mps 717 mmHg 88%
21:00 +23°C° 0.6 mm 2 mps 717 mmHg 87%
22:00 +23°C° 0.2 mm 2 mps 717 mmHg 89%
23:00 +23°C° 0.2 mm 2 mps 718 mmHg 90%

Tomorrow, 22 January, Friday

Time Temperature Precipitation Wind Pressure Humidity
00:00 +21°C° 0.2 mm 2 mps 718 mmHg 92%
01:00 +21°C° 0.2 mm 2 mps 718 mmHg 92%
02:00 +21°C° 0.2 mm 3 mps 717 mmHg 93%
03:00 +21°C° 0.2 mm 3 mps 717 mmHg 93%
04:00 +21°C° 1 mm 3 mps 717 mmHg 94%
05:00 +21°C° 1 mm 3 mps 717 mmHg 94%
06:00 +21°C° 1 mm 3 mps 717 mmHg 95%
07:00 +21°C° 1 mm 3 mps 718 mmHg 95%
08:00 +21°C° 1 mm 3 mps 718 mmHg 95%
09:00 +21°C° 1 mm 3 mps 719 mmHg 94%
10:00 +22°C° 0.2 mm 3 mps 719 mmHg 93%
11:00 +22°C° 0.2 mm 3 mps 718 mmHg 92%
12:00 +23°C° 0.2 mm 4 mps 718 mmHg 91%
13:00 +25°C° 0.3 mm 3 mps 718 mmHg 87%
14:00 +27°C° 0.3 mm 3 mps 718 mmHg 83%
15:00 +28°C° 0.3 mm 3 mps 718 mmHg 79%
16:00 +27°C° 0.6 mm 3 mps 717 mmHg 82%
17:00 +26°C° 0.6 mm 2 mps 717 mmHg 85%
18:00 +25°C° 0.6 mm 2 mps 717 mmHg 88%
19:00 +25°C° 0.3 mm 2 mps 717 mmHg 88%
20:00 +24°C° 0.3 mm 2 mps 717 mmHg 88%
21:00 +24°C° 0.3 mm 3 mps 717 mmHg 88%
22:00 +24°C° 0.1 mm 3 mps 718 mmHg 88%
23:00 +22°C° 0.1 mm 3 mps 718 mmHg 88%

Day after tomorrow, 23 January, Saturday

Time Temperature Precipitation Wind Pressure Humidity
00:00 +22°C° 0.1 mm 3 mps 718 mmHg 88%
01:00 +22°C° 0.1 mm 3 mps 718 mmHg 88%
02:00 +22°C° 0.1 mm 3 mps 717 mmHg 89%
03:00 +21°C° 0.1 mm 3 mps 717 mmHg 89%
04:00 +21°C° 0 mm 4 mps 717 mmHg 90%
05:00 +21°C° 0 mm 4 mps 717 mmHg 90%
06:00 +21°C° 0 mm 4 mps 717 mmHg 90%
07:00 +22°C° 0 mm 5 mps 718 mmHg 88%
08:00 +23°C° 0 mm 5 mps 718 mmHg 86%
09:00 +23°C° 0 mm 6 mps 718 mmHg 84%
10:00 +25°C° 0.4 mm 5 mps 718 mmHg 83%
11:00 +26°C° 0.4 mm 5 mps 718 mmHg 81%
12:00 +27°C° 0.4 mm 5 mps 718 mmHg 80%
13:00 +28°C° 0.8 mm 5 mps 718 mmHg 78%
14:00 +29°C° 0.8 mm 5 mps 717 mmHg 75%
15:00 +29°C° 0.8 mm 5 mps 716 mmHg 72%
16:00 +28°C° 2 mm 4 mps 716 mmHg 77%
17:00 +27°C° 2 mm 3 mps 716 mmHg 81%
18:00 +26°C° 2 mm 3 mps 716 mmHg 85%
19:00 +25°C° 1.4 mm 3 mps 716 mmHg 87%
20:00 +24°C° 1.4 mm 2 mps 716 mmHg 90%
21:00 +23°C° 1.4 mm 2 mps 717 mmHg 92%
22:00 +23°C° 0.8 mm 2 mps 717 mmHg 92%
23:00 +22°C° 0.8 mm 3 mps 717 mmHg 93%

24 January, Sunday

Time Temperature Precipitation Wind Pressure Humidity
00:00 +22°C° 0.8 mm 3 mps 717 mmHg 93%
01:00 +22°C° 0.1 mm 3 mps 717 mmHg 92%
02:00 +21°C° 0.1 mm 3 mps 716 mmHg 91%
03:00 +21°C° 0.1 mm 2 mps 716 mmHg 90%
04:00 +21°C° 0.1 mm 3 mps 716 mmHg 91%
05:00 +21°C° 0.1 mm 3 mps 716 mmHg 92%
06:00 +21°C° 0.1 mm 3 mps 716 mmHg 93%
07:00 +22°C° 0 mm 3 mps 716 mmHg 92%
08:00 +22°C° 0 mm 4 mps 717 mmHg 90%
09:00 +23°C° 0 mm 4 mps 717 mmHg 88%
10:00 +25°C° 1 mm 4 mps 717 mmHg 87%
11:00 +26°C° 1 mm 4 mps 717 mmHg 86%
12:00 +26°C° 1 mm 4 mps 717 mmHg 84%
13:00 +26°C° 0.9 mm 3 mps 716 mmHg 86%
14:00 +26°C° 0.9 mm 3 mps 716 mmHg 87%
15:00 +25°C° 0.9 mm 2 mps 715 mmHg 89%
16:00 +25°C° 0.2 mm 2 mps 715 mmHg 90%
17:00 +24°C° 0.2 mm 2 mps 715 mmHg 90%
18:00 +24°C° 0.2 mm 2 mps 714 mmHg 91%
19:00 +24°C° 0 mm 2 mps 715 mmHg 90%
20:00 +24°C° 0 mm 2 mps 715 mmHg 89%
21:00 +23°C° 0 mm 2 mps 715 mmHg 89%
22:00 +23°C° 0 mm 2 mps 715 mmHg 89%
23:00 +23°C° 0 mm 2 mps 715 mmHg 89%

25 January, Monday

Time Temperature Precipitation Wind Pressure Humidity
00:00 +21°C° 0 mm 3 mps 715 mmHg 90%
01:00 +21°C° 0.2 mm 3 mps 715 mmHg 90%
02:00 +20°C° 0.2 mm 3 mps 714 mmHg 90%
03:00 +20°C° 0.2 mm 3 mps 714 mmHg 90%
04:00 +20°C° 0.3 mm 3 mps 714 mmHg 90%
05:00 +20°C° 0.3 mm 3 mps 714 mmHg 91%
06:00 +20°C° 0.3 mm 3 mps 714 mmHg 91%
07:00 +21°C° 0 mm 4 mps 715 mmHg 91%
08:00 +21°C° 0 mm 4 mps 715 mmHg 91%
09:00 +21°C° 0 mm 4 mps 715 mmHg 91%
10:00 +22°C° 0.1 mm 4 mps 715 mmHg 90%
11:00 +23°C° 0.1 mm 4 mps 715 mmHg 89%
12:00 +23°C° 0.1 mm 4 mps 715 mmHg 88%
13:00 +26°C° 1 mm 4 mps 715 mmHg 84%
14:00 +27°C° 1 mm 5 mps 714 mmHg 79%
15:00 +29°C° 1 mm 5 mps 714 mmHg 75%
16:00 +28°C° 0.5 mm 4 mps 713 mmHg 78%
17:00 +28°C° 0.5 mm 3 mps 713 mmHg 81%
18:00 +27°C° 0.5 mm 2 mps 713 mmHg 83%
19:00 +26°C° 0.4 mm 2 mps 713 mmHg 84%
20:00 +25°C° 0.4 mm 2 mps 714 mmHg 84%
21:00 +24°C° 0.4 mm 1 mps 714 mmHg 85%
22:00 +24°C° 0.1 mm 2 mps 714 mmHg 86%
23:00 +24°C° 0.1 mm 2 mps 714 mmHg 87%

26 January, Tuesday

Time Temperature Precipitation Wind Pressure Humidity
00:00 +22°C° 0.1 mm 3 mps 715 mmHg 88%
01:00 +22°C° 0 mm 3 mps 714 mmHg 88%
02:00 +22°C° 0 mm 3 mps 714 mmHg 89%
03:00 +23°C° 0 mm 2 mps 713 mmHg 89%
04:00 +23°C° 0 mm 2 mps 713 mmHg 90%
05:00 +23°C° 0 mm 2 mps 714 mmHg 91%
06:00 +23°C° 0 mm 2 mps 714 mmHg 92%
07:00 +22°C° 0 mm 3 mps 714 mmHg 89%
08:00 +23°C° 0 mm 4 mps 715 mmHg 87%
09:00 +25°C° 0 mm 4 mps 715 mmHg 85%
10:00 +26°C° 0.5 mm 4 mps 715 mmHg 83%
11:00 +27°C° 0.5 mm 4 mps 715 mmHg 82%
12:00 +28°C° 0.5 mm 4 mps 715 mmHg 80%
13:00 +28°C° 1.6 mm 4 mps 715 mmHg 80%
14:00 +29°C° 1.6 mm 3 mps 715 mmHg 79%
15:00 +29°C° 1.6 mm 3 mps 714 mmHg 78%
16:00 +28°C° 0.4 mm 3 mps 714 mmHg 80%
17:00 +28°C° 0.4 mm 2 mps 714 mmHg 81%
18:00 +28°C° 0.4 mm 2 mps 714 mmHg 82%
19:00 +27°C° 0.2 mm 2 mps 714 mmHg 83%
20:00 +26°C° 0.2 mm 1 mps 714 mmHg 83%
21:00 +25°C° 0.2 mm 1 mps 714 mmHg 84%
22:00 +24°C° 0 mm 1 mps 714 mmHg 84%
23:00 +24°C° 0 mm 2 mps 714 mmHg 85%
Show more